This is the latest recevied weather packets stored in our database for station/object IR3AS. If no packets are shown the sender has not sent any weather packets the latest 10 day(s).
| Time | Temp. | Humidity | Pressure | Rain* | Wind** | Luminosity | Snow |
|---|---|---|---|---|---|---|---|
| 1776929786 | 2.22° C | 33% | 859.3 hPa | 0 mm | - | - | - |
| 1776929486 | 1.67° C | 33% | 859.2 hPa | 0 mm | - | - | - |
| 1776929186 | 1.67° C | 34% | 859.1 hPa | 0 mm | - | - | - |
| 1776928886 | 1.11° C | 36% | 859 hPa | 0 mm | - | - | - |
| 1776928586 | 1.11° C | 34% | 858.9 hPa | 0 mm | - | - | - |
| 1776928286 | 0.56° C | 34% | 858.8 hPa | 0 mm | - | - | - |
| 1776927986 | 0.56° C | 38% | 858.8 hPa | 0 mm | - | - | - |
| 1776927686 | 0.56° C | 36% | 858.5 hPa | 0 mm | - | - | - |
| 1776927386 | 0.56° C | 36% | 858.1 hPa | 0 mm | - | - | - |
| 1776927086 | 1.11° C | 38% | 857.9 hPa | 0 mm | - | - | - |
| 1776926786 | 1.11° C | 38% | 858 hPa | 0 mm | - | - | - |
| 1776926486 | 1.67° C | 38% | 857.9 hPa | 0 mm | - | - | - |
| 1776926186 | 2.22° C | 37% | 857.8 hPa | 0 mm | - | - | - |
| 1776925886 | 2.22° C | 38% | 857.7 hPa | 0 mm | - | - | - |
| 1776925586 | 1.67° C | 38% | 857.8 hPa | 0 mm | - | - | - |
| 1776925286 | 2.22° C | 38% | 857.6 hPa | 0 mm | - | - | - |
| 1776924986 | 2.78° C | 37% | 857.8 hPa | 0 mm | - | - | - |
| 1776924686 | 2.22° C | 38% | 857.8 hPa | 0 mm | - | - | - |
| 1776924386 | 1.67° C | 39% | 857.8 hPa | 0 mm | - | - | - |
| 1776924086 | 1.11° C | 39% | 857.8 hPa | 0 mm | - | - | - |
| 1776923786 | 1.67° C | 39% | 857.6 hPa | 0 mm | - | - | - |
| 1776923486 | 2.22° C | 40% | 857.3 hPa | 0 mm | - | - | - |
| 1776923186 | 2.22° C | 41% | 857.1 hPa | 0 mm | - | - | - |
| 1776922886 | 2.22° C | 41% | 857 hPa | 0 mm | - | - | - |
| 1776922586 | 1.67° C | 40% | 856.7 hPa | 0 mm | - | - | - |
* Rain latest hour (hover to see other rain measurements)
** Current wind speed in m/s (hover to see current wind gust speed)